Location: *
(45.9500°N, 9.0833°E)
Time: 01:44:12
(UTC+00:00)

SR - Pass Details

Date: 14 June 2021
Orbit: 577 x 878 km, 66.7° (Epoch: 23 July)

Event Time Altitude Azimuth Distance (km) Brightness Sun altitude
Rises 23:19:10 0° 330° (NNW) 3,396 ? -20.7°
Reaches altitude 10° 23:23:05 10° 356° (N) 2,401 ? -20.7°
Maximum altitude 23:25:47 14° 25° (NNE) 2,108 ? -20.7°
Drops below altitude 10° 23:28:24 10° 55° (NE) 2,302 ? -20.7°
Sets 23:32:00 0° 82° (E) 3,149 ? -20.7°
